Location: Warwick
(41.7000°N, 71.4170°W)
Time: 02:48:48
(UTC-04:00)

BREEZE-M DEB (TANK) - Visible Passes

Search period start: 26 May 2016 00:00
Search period end: 05 June 2016 00:00
Orbit: 282 x 15914 km, 49.5° (Epoch: 25 May)

Date Brightness Start Highest point End Pass type
(mag) Time Alt. Az. Time Alt. Az. Time Alt. Az.
26 May 8.1 03:42:54 10° WNW 06:03:59 61° WSW 06:54:55 10° S visible
26 May 8.3 22:18:37 10° WSW 23:15:20 82° NNW 01:49:28 10° E visible
27 May 8.0 03:49:09 10° WNW 06:07:56 59° WSW 06:59:15 10° S visible
27 May 8.3 22:23:40 10° WSW 23:23:33 81° NNW 01:55:16 10° E visible
28 May 8.0 03:55:24 10° WNW 06:11:41 56° W 07:03:28 10° S visible
28 May 8.4 22:28:44 10° WSW 23:32:12 80° NNW 02:00:59 10° ESE visible
29 May 8.0 04:01:39 10° NW 06:15:14 53° W 07:07:37 10° S visible
29 May 8.4 22:33:50 10° WSW 23:41:18 80° NNW 02:06:37 10° ESE visible
30 May 8.0 04:07:53 10° NW 06:18:35 51° W 07:11:41 10° SSW visible
30 May 8.5 22:38:56 10° WSW 23:50:54 79° N 02:12:09 10° ESE visible
31 May 8.0 04:14:10 10° NW 06:21:46 48° W 07:15:38 10° SSW visible
31 May 8.5 22:44:03 10° WSW 00:00:58 79° N 02:17:36 10° ESE visible
01 Jun 8.0 04:20:25 10° NW 06:24:45 46° W 07:19:28 10° SSW visible
01 Jun 8.6 22:49:10 10° W 00:11:28 79° N 02:22:59 10° ESE visible
02 Jun 8.0 04:26:42 10° NW 06:27:35 44° W 07:23:12 10° SSW visible
02 Jun 8.7 22:54:19 10° W 00:22:15 79° N 02:28:16 10° ESE visible
03 Jun 8.0 04:33:00 10° NW 06:30:15 41° W 07:26:47 10° SSW visible
03 Jun 7.4 17:57:06 10° S 18:21:42 50° ESE 20:26:10 10° NE visible
03 Jun 8.7 22:59:28 10° W 00:33:06 80° NNE 02:33:29 10° ESE visible
04 Jun 8.1 04:39:20 10° NW 06:32:47 39° W 07:30:12 10° SSW visible
04 Jun 7.4 18:01:17 10° S 18:25:39 53° ESE 20:33:47 10° ENE visible
